GLD1793 RPVI-RPVS

Flight info

Callsign GLD1793
Flight time 0h 19m
Altitude 8000
Route LAMB1S LAMBO DCT
Aircraft BE58/M-SDFGIRY/S

Departure

Time 2026-05-07 22:02
Airport Iloilo International Airport (RPVI)

Arrival

Time 2026-05-07 22:21
Airport Evelio Javier Airport (RPVS)
Time Latitude Longitude Altitude Speed Heading
2026-05-07 21:45 10.83013 122.49591 134 ft 0 kts 287°
2026-05-07 21:55 10.83020 122.49570 134 ft 0 kts 287°
2026-05-07 21:58 10.83022 122.49564 134 ft 3 kts 287°
2026-05-07 21:58 10.83031 122.49521 134 ft 9 kts 270°
2026-05-07 21:58 10.83042 122.49439 134 ft 14 kts 288°
2026-05-07 21:58 10.83073 122.49344 134 ft 13 kts 290°
2026-05-07 21:59 10.83098 122.49285 134 ft 0 kts 295°
2026-05-07 21:59 10.83102 122.49275 134 ft 4 kts 295°
2026-05-07 22:00 10.83130 122.49271 134 ft 3 kts 17°
2026-05-07 22:00 10.83161 122.49282 135 ft 28 kts 23°
2026-05-07 22:00 10.83571 122.49435 139 ft 88 kts 20°
2026-05-07 22:00 10.84232 122.49673 174 ft 106 kts 20°
2026-05-07 22:01 10.84974 122.49888 382 ft 116 kts 19°
2026-05-07 22:01 10.85843 122.50138 354 ft 145 kts 17°
2026-05-07 22:01 10.86860 122.50419 488 ft 153 kts 19°
2026-05-07 22:01 10.87886 122.50667 627 ft 154 kts 17°
2026-05-07 22:02 10.88936 122.50951 780 ft 158 kts 17°
2026-05-07 22:02 10.89998 122.51246 919 ft 157 kts 17°
2026-05-07 22:02 10.91073 122.51539 1066 ft 165 kts 17°
2026-05-07 22:02 10.92207 122.51851 1208 ft 171 kts 17°
2026-05-07 22:03 10.93377 122.52030 1359 ft 172 kts 354°
2026-05-07 22:03 10.94450 122.51472 1513 ft 177 kts 327°
2026-05-07 22:03 10.95433 122.50692 1677 ft 179 kts 326°
2026-05-07 22:03 10.96413 122.49908 1822 ft 180 kts 327°
2026-05-07 22:04 10.97399 122.49122 1968 ft 180 kts 327°
2026-05-07 22:04 10.98368 122.48346 2216 ft 176 kts 326°
2026-05-07 22:04 10.99330 122.47574 2477 ft 175 kts 327°
2026-05-07 22:04 11.00274 122.46815 2734 ft 171 kts 328°
2026-05-07 22:05 11.01194 122.46073 2995 ft 170 kts 328°
2026-05-07 22:05 11.02121 122.45323 3255 ft 171 kts 328°
2026-05-07 22:05 11.03056 122.44564 3514 ft 173 kts 327°
2026-05-07 22:05 11.04004 122.43795 3776 ft 174 kts 327°
2026-05-07 22:06 11.04960 122.43018 3997 ft 180 kts 327°
2026-05-07 22:06 11.05974 122.42203 3993 ft 190 kts 327°
2026-05-07 22:06 11.07016 122.41373 4019 ft 192 kts 327°
2026-05-07 22:06 11.08093 122.40520 4016 ft 199 kts 327°
2026-05-07 22:07 11.09182 122.39675 4030 ft 198 kts 331°
2026-05-07 22:07 11.10390 122.39007 4056 ft 198 kts 337°
2026-05-07 22:07 11.11578 122.38306 4125 ft 200 kts 333°
2026-05-07 22:07 11.12745 122.37501 4192 ft 203 kts 327°
2026-05-07 22:08 11.13659 122.36418 4452 ft 203 kts 304°
2026-05-07 22:08 11.14117 122.35064 4711 ft 204 kts 282°
2026-05-07 22:08 11.14084 122.33741 4941 ft 205 kts 259°
2026-05-07 22:08 11.13673 122.32613 5157 ft 207 kts 240°
2026-05-07 22:09 11.12783 122.31510 5408 ft 198 kts 224°
2026-05-07 22:09 11.11839 122.30530 5667 ft 193 kts 224°
2026-05-07 22:09 11.10913 122.29557 5928 ft 192 kts 224°
2026-05-07 22:09 11.10004 122.28603 6189 ft 193 kts 223°
2026-05-07 22:10 11.09063 122.27621 6422 ft 192 kts 223°
2026-05-07 22:10 11.08139 122.26657 6682 ft 191 kts 223°
2026-05-07 22:10 11.07207 122.25680 6939 ft 194 kts 222°
2026-05-07 22:10 11.06255 122.24686 7195 ft 197 kts 222°
2026-05-07 22:11 11.05290 122.23677 7454 ft 199 kts 222°
2026-05-07 22:11 11.04321 122.22663 7711 ft 201 kts 223°
2026-05-07 22:11 11.03344 122.21642 7979 ft 203 kts 223°
2026-05-07 22:11 11.02252 122.20665 7998 ft 212 kts 213°
2026-05-07 22:12 11.01029 122.19775 8011 ft 220 kts 212°
2026-05-07 22:12 10.99791 122.18815 8013 ft 225 kts 215°
2026-05-07 22:12 10.98578 122.17829 8010 ft 228 kts 216°
2026-05-07 22:12 10.97310 122.16806 7860 ft 236 kts 215°
2026-05-07 22:13 10.95985 122.15746 7586 ft 245 kts 215°
2026-05-07 22:13 10.94639 122.14668 7270 ft 251 kts 216°
2026-05-07 22:13 10.93259 122.13562 6939 ft 254 kts 215°
2026-05-07 22:13 10.91863 122.12444 6601 ft 256 kts 216°
2026-05-07 22:14 10.90460 122.11320 6261 ft 257 kts 215°
2026-05-07 22:14 10.89054 122.10194 5904 ft 256 kts 216°
2026-05-07 22:14 10.87694 122.09105 5566 ft 238 kts 216°
2026-05-07 22:14 10.86429 122.08092 5253 ft 224 kts 216°
2026-05-07 22:15 10.85210 122.07119 4963 ft 224 kts 216°
2026-05-07 22:15 10.83993 122.06145 4665 ft 221 kts 217°
2026-05-07 22:15 10.82799 122.05190 4373 ft 215 kts 216°
2026-05-07 22:15 10.81634 122.04259 4087 ft 211 kts 217°
2026-05-07 22:16 10.80506 122.03356 3811 ft 207 kts 217°
2026-05-07 22:16 10.79382 122.02458 3538 ft 204 kts 217°
2026-05-07 22:16 10.78266 122.01564 3268 ft 203 kts 217°
2026-05-07 22:16 10.77228 122.00731 2996 ft 179 kts 217°
2026-05-07 22:17 10.76287 121.99982 2769 ft 170 kts 216°
2026-05-07 22:17 10.75351 121.99237 2541 ft 171 kts 217°
2026-05-07 22:17 10.74405 121.98480 2314 ft 177 kts 218°
2026-05-07 22:17 10.73410 121.97683 2068 ft 190 kts 219°
2026-05-07 22:18 10.72347 121.96833 1809 ft 191 kts 219°
2026-05-07 22:18 10.70615 121.95185 1344 ft 159 kts 251°
2026-05-07 22:18 10.70649 121.94105 1139 ft 155 kts 295°
2026-05-07 22:19 10.71376 121.93350 940 ft 147 kts 336°
2026-05-07 22:19 10.72320 121.93224 827 ft 127 kts
2026-05-07 22:19 10.73176 121.93232 656 ft 120 kts 358°
2026-05-07 22:19 10.73985 121.93226 518 ft 115 kts 359°
2026-05-07 22:20 10.74771 121.93241 394 ft 111 kts 359°
2026-05-07 22:20 10.75549 121.93235 204 ft 112 kts 360°
2026-05-07 22:20 10.76289 121.93243 49 ft 95 kts 359°
2026-05-07 22:20 10.76857 121.93244 27 ft 69 kts 360°
2026-05-07 22:21 10.77146 121.93253 23 ft 20 kts
2026-05-07 22:21 10.77154 121.93230 23 ft 1 kts 209°